Regional Weather Roundup
Issued by NWS Midland/Odessa, TX

Skip options and go directly to product.
Home | Oldest Version | Previous Version | Current Version | All | Graphics & Text | Save Text | Print | Product List | Glossary On

Skip product version selection by date and time.   
045
ASUS44 KMAF 270610
RWRMAF
MIDLAND AREA WEATHER ROUNDUP
NATIONAL WEATHER SERVICE MIDLAND TX
1200 AM CST THU NOV 27 2014

...IN SOUTHWEST TEXAS AND SOUTHEAST NEW MEXICO...

CITY           SKY/WX    TMP DP  RH WIND       PRES   REMARKS
ALPINE         CLEAR     38  23  54 SW7       30.42R WCI  32
ANDREWS        FAIR      39  31  73 SE5       30.39R WCI  35
ARTESIA        NOT AVBL
BIG SPRING     CLEAR     45  32  61 E6        30.41R
CARLSBAD       CLEAR     42  26  53 S8        30.36R WCI  37
DRYDEN           N/A     51  27  39 N10       30.34R
FORT STOCKTON  CLEAR     47  24  40 SE9       30.35R
GUAD PASS      NOT AVBL
HOBBS          PTCLDY    39  28  65 E3        30.39R
MARFA          CLEAR     30  19  64 N6        30.39R WCI  24
MIDLAND AIRPK  CLEAR     46  33  58 E6        30.39R
MIDLAND INTL   CLEAR     45  31  58 E8        30.37R
ODESSA         CLEAR     45  30  55 E8        30.38R
PECOS          CLEAR     42  26  53 NE6       30.35R WCI  38
PRESIDIO       FAIR      48  23  36 N8        30.32S
SEMINOLE       CLEAR     38  30  72 E5        30.40R WCI  34
SNYDER         CLEAR     41  33  72 E5        30.41R WCI  38
WINK           CLEAR     39  25  57 NE6       30.35R WCI  35
$$
...OTHER STATIONS IN TEXAS...

CITY           SKY/WX    TMP DP  RH WIND       PRES   REMARKS
ABILENE        CLEAR     43  33  68 E5        30.41R
AMARILLO       CLEAR     29  21  72 SE9       30.40S WCI  20
AUSTIN         CLEAR     42  38  85 N5        30.36R WCI  39
BROWNSVILLE    CLEAR     54  53  97 S3        30.32S FOG
CORPUS CHRISTI CLEAR     52  50  93 S6        30.31R
DALLAS FTW     CLEAR     47  30  51 N10       30.39R
DEL RIO        CLEAR     45  36  70 S3        30.31R
EL PASO        CLEAR     47  20  34 W3        30.32F
HOUSTON INT    CLEAR     51  43  74 NW3       30.33R
LUBBOCK        PTCLDY    36  24  62 E6        30.40R WCI  31
SAN ANGELO     CLEAR     39  32  76 E5        30.39R WCI  36
SAN ANTONIO    CLEAR     54  35  48 CALM      30.34R
WACO           CLEAR     43  36  76 N5        30.39R
WICHITA FALLS  NOT AVBL
$$
...OTHER LOCATIONS IN NEW MEXICO...

CITY           SKY/WX    TMP DP  RH WIND       PRES   REMARKS
ALAMAGORDO     PTCLDY    41  19  42 MISG      30.35R
ALBUQUERQUE    PTCLDY    44  22  41 NW3       30.42R
CANNON AFB     PTCLDY    34  24  67 E6        30.39R WCI  28
CLOVIS         PTCLDY    30  19  64 E6        30.39R WCI  24
HOLLOMAN AFB   PTCLDY    43  21  41 SE2       30.34R
ROSWELL        PTCLDY    38  25  59 S6        30.36R WCI  33
RUIDOSO        CLEAR     45  19  36 NW6       30.44R
SANTA FE       CLEAR     36  20  52 N9        30.41R WCI  29
TRUTH OR CONSE CLEAR     43  20  39 CALM      30.37R
TUCUMCARI      CLEAR     32  25  75 CALM      30.37R
$$

USA.gov is the U.S. government's official web portal to all federal, state and local government web resources and services.